This is the latest recevied weather packets stored in our database for station/object SA7AHC. If no packets are shown the sender has not sent any weather packets the latest 10 day(s).
| Time | Temp. | Humidity | Pressure | Rain* | Wind** | Luminosity | Snow |
|---|---|---|---|---|---|---|---|
| 1777746815 | 18.89° C | 39% | 1013.7 hPa | 0 mm | - | 5 W/m² | - |
| 1777746219 | 19.44° C | 37% | 1013.7 hPa | 0 mm | - | 9 W/m² | - |
| 1777745615 | 19.44° C | 37% | 1013.9 hPa | 0 mm | - | 12 W/m² | - |
| 1777745014 | 19.44° C | 36% | 1013.5 hPa | 0 mm | - | 16 W/m² | - |
| 1777744412 | 20° C | 36% | 1013.5 hPa | 0 mm | - | 18 W/m² | - |
| 1777743817 | 20.56° C | 35% | 1013.5 hPa | 0 mm | - | 23 W/m² | - |
| 1777743212 | 20.56° C | 34% | 1013.7 hPa | 0 mm | - | 23 W/m² | - |
| 1777742611 | 20.56° C | 34% | 1013.7 hPa | 0 mm | - | 25 W/m² | - |
| 1777742014 | 21.11° C | 32% | 1013.6 hPa | 0 mm | - | 35 W/m² | - |
| 1777741428 | 21.67° C | 32% | 1013.6 hPa | 0 mm | - | 42 W/m² | - |
| 1777740814 | 21.67° C | 31% | 1013.7 hPa | 0 mm | - | 155 W/m² | - |
| 1777740213 | 22.22° C | 32% | 1013.7 hPa | 0 mm | - | 185 W/m² | - |
| 1777739614 | 22.22° C | 31% | 1014.1 hPa | 0 mm | - | 211 W/m² | - |
| 1777739014 | 22.22° C | 30% | 1014.1 hPa | 0 mm | - | 241 W/m² | - |
| 1777738415 | 22.78° C | 30% | 1014.4 hPa | 0 mm | - | 269 W/m² | - |
| 1777737811 | 22.78° C | 29% | 1014.4 hPa | 0 mm | - | 295 W/m² | - |
| 1777737211 | 22.78° C | 28% | 1014.5 hPa | 0 mm | - | 320 W/m² | - |
| 1777736614 | 22.78° C | 28% | 1014.5 hPa | 0 mm | - | 343 W/m² | - |
| 1777736013 | 23.33° C | 28% | 1015 hPa | 0 mm | - | 367 W/m² | - |
| 1777735411 | 23.33° C | 28% | 1015 hPa | 0 mm | - | 390 W/m² | - |
| 1777734812 | 23.33° C | 27% | 1015 hPa | 0 mm | - | 415 W/m² | - |
| 1777734212 | 23.89° C | 27% | 1015 hPa | 0 mm | - | 438 W/m² | - |
| 1777733610 | 23.33° C | 28% | 1015 hPa | 0 mm | - | 461 W/m² | - |
| 1777733008 | 23.33° C | 28% | 1015.4 hPa | 0 mm | - | 485 W/m² | - |
| 1777732408 | 23.33° C | 28% | 1015.5 hPa | 0 mm | - | 506 W/m² | - |
* Rain latest hour (hover to see other rain measurements)
** Current wind speed in m/s (hover to see current wind gust speed)